Regional Weather Roundup
Issued by NWS Sioux Falls, SD

Home | Current Version | Previous Version | Text Only | Print | Product List | Glossary On
Versions: 1 2 3 4 5 6 7 8 9 10 11 12 13 14 15 16 17 18 19 20 21 22 23 24 25 26 27 28 29 30 31 32 33 34 35 36 37 38 39 40 41 42 43 44 45 46 47 48 49 50
000
ASUS43 KFSD 230010
RWRFSD

WEATHER ROUNDUP FOR SE SOUTH DAKOTA/SW MINNESOTA/NW IOWA
NATIONAL WEATHER SERVICE SIOUX FALLS SD
600 PM CST MON DEC 22 2014

NOTE: "FAIR" INDICATES FEW OR NO CLOUDS BELOW 12,000 FEET WITH NO
SIGNIFICANT WEATHER AND OR OBSTRUCTIONS TO VISIBILITY.


SDZ038>040-050-052>070-230100-
SOUTHEAST SOUTH DAKOTA

CITY           SKY/WX    TMP DP  RH WIND       PRES   REMARKS
CHAMBERLAIN    FLURRIES  32  30  93 NW13      29.49R WCI  22
6HR MIN TEMP:  32; 6HR MAX TEMP:  35;

HURON          CLOUDY    33  32  96 NW5       29.46R WCI  29
6HR MIN TEMP:  32; 6HR MAX TEMP:  35; 6HR PCP: TRACE;

MADISON        CLOUDY    32  32 100 NW6       29.43S WCI  26
MITCHELL       CLOUDY    34  33  96 NW7       29.46S WCI  28
6HR MIN TEMP:  34; 6HR MAX TEMP:  37; 6HR PCP: TRACE;

SIOUX FALLS    LGT RAIN  36  34  92 N7        29.43S
6HR MIN TEMP:  36; 6HR MAX TEMP:  40; 6HR PCP:  0.01;

WINNER         LGT SNOW  33  30  88 NW21      29.51R FOG     WCI  21
YANKTON        CLOUDY    37  34  87 NW9       29.47R
$$

MNZ071-072-080-081-089-090-097-098-230100-
SOUTHWEST MINNESOTA

CITY           SKY/WX    TMP DP  RH WIND       PRES   REMARKS
FAIRMONT       CLOUDY    34  30  86 E10       29.51R WCI  26
JACKSON        DRIZZLE   34  34 100 SE12      29.49R WCI  25
LUVERNE        CLOUDY    37  37 100 E9        29.44S FOG
MARSHALL       CLOUDY    37  34  87 SE15      29.49R
6HR MIN TEMP:  37; 6HR MAX TEMP:  39;

MONTEVIDEO     RAIN      36  36 100 SE12      29.53R
PIPESTONE      RAIN      37  37 100 SE7       29.44R
REDWOOD FALLS  LGT RAIN  36  34  92 E8G18     29.53R FOG
TRACY          DRIZZLE   37  36  96 SE9       29.49R
WINDOM         LGT RAIN  36  34  93 E9        29.49S
WORTHINGTON    CLOUDY    36 -13  12 SE13      29.47R
$$

IAZ001>003-012>014-020>022-031-032-NEZ013-014-SDZ071-230100-
NORTHWEST IOWA

CITY           SKY/WX    TMP DP  RH WIND       PRES   REMARKS
CHEROKEE       RAIN      38  38 100 E7        29.45R
DENISON        MIX PCPN  41  41 100 E6        29.41R
ESTHERVILLE    CLOUDY    34  34 100 E14       29.48R FOG     WCI  25
LE MARS        LGT RAIN  39  39 100 CALM      29.44R
ORANGE CITY    DRIZZLE   39  37  93 E7        29.43R
SHELDON        CLOUDY    37  37 100 E12       29.44R FOG
SIOUX CITY     LGT RAIN  40  38  93 NW9       29.43S
6HR MIN TEMP:  40; 6HR MAX TEMP:  43; 6HR PCP:  0.04;

SPENCER        LGT RAIN  37  35  92 E14       29.47R FOG
6HR MIN TEMP:  37; 6HR MAX TEMP:  41; 6HR PCP:  0.02;

STORM LAKE     MIX PCPN  37  37 100 SE12G18   29.45R
$$

ABBREVIATIONS USED IN REMARKS
   TC - TEMPERATURE IN CELSIUS
  WCI - WIND CHILL INDEX
   HX - HEAT INDEX
  VSB - VISIBILITY



USA.gov is the U.S. government's official web portal to all federal, state and local government web resources and services.